Volver al catálogo

STARLINK-32077

ActivoComunicacionesVLEO
NORAD 60344·PAYLOAD·🇺🇸 United States

Lanzado Aug 2, 2024 desde Cape Canaveral Space Force Station

Loading…

Próximos Pases (próximas 24 horas)

TLE

ActualizadoSource: CelesTrak SupGP

Época: Sep 14, 2026, 21:16 UTC

1 60344C 24136R   26257.88659722  .00046210  00000+0  13656-2 0  2574
2 60344  53.1571 275.9913 0001289  81.8509 282.8087 15.34360381    18

Sigue STARLINK-32077 en tiempo real con AllMySat

Download on the App Store